[[{"header":{"parameterUnit":"m.s-1","parameterCategory":1,"la1":30.2991,"la2":30.254,"lo1":-89.0895,"lo2":-89.0444,"dy":0.0017,"dx":0.0017,"nx":28,"ny":28,"refTime":"2025-07-16T09:00:00:Z","depth":0,"parameterNumber":2,"parameterNumberName":"U-component_of_WINDS"},"data":[0,0,0,0,0,0,0,0,0,0,0,0,0,0,0,0,0,0,0,0,0,0,0,0,0,0,0,0,0,0,0,0,0,0,0,0,0,0,0,0,0,0,0,0,0,0,0,0,0,0,0,0,0,0,0,0,0,0,-4.8502,-4.8503,0,-4.8571,-4.8571,-4.8572,-4.8532,-4.8531,-4.8529,-4.8527,-4.8596,-4.86,-4.8603,0,0,0,0,0,0,0,0,0,0,0,0,0,-4.8334,-4.8337,-4.8502,-4.8503,-4.8503,-4.857,-4.8571,-4.8572,-4.8533,-4.853,-4.8528,-4.8526,-4.8595,-4.8599,-4.8603,0,0,0,0,0,0,0,0,0,0,0,0,0,-4.8405,-4.8338,-4.8502,-4.8492,-4.8492,-4.857,-4.8571,-4.8573,-4.8533,-4.853,-4.8527,-4.8525,-4.8593,-4.8599,-4.8604,-4.8696,0,0,-4.8621,-4.8623,0,0,0,0,0,0,0,0,-4.8401,-4.8411,-4.8492,-4.8493,-4.8493,-4.854,-4.8538,-4.8614,-4.8534,-4.8517,-4.8527,-4.8523,-4.858,-4.8586,-4.8605,-4.8699,-4.8702,-4.8621,-4.8625,-4.8627,-4.8628,0,0,0,0,0,0,0,-4.8396,-4.8408,-4.8529,-4.8494,-4.8494,-4.8483,-4.849,-4.8552,-4.8564,-4.8519,-4.8516,-4.8525,-4.8579,-4.86,-4.8607,-4.8703,-4.8621,-4.8626,-4.8629,-4.8631,-4.8872,-4.8875,0,0,0,0,0,0,-4.8392,-4.8404,-4.8527,-4.8531,-4.8439,-4.8489,-4.8496,-4.8528,-4.8563,-4.8566,-4.8527,-4.8523,-4.8592,-4.86,-4.8609,-4.8715,-4.8627,-4.8632,-4.8635,-4.8869,-4.8873,-4.8876,0,0,0,0,0,0,-4.8389,-4.8404,-4.8524,-4.8467,-4.8482,-4.8495,-4.853,-4.8531,-4.8551,-4.857,-4.8571,-4.8546,-4.859,-4.8601,-4.8674,-4.8717,-4.8634,-4.8639,-4.8865,-4.887,-4.8874,-4.8931,0,0,0,0,0,0,-4.8384,-4.8403,-4.8438,-4.8468,-4.8485,-4.8588,-4.8533,-4.8534,-4.8561,-4.8556,-4.8588,-4.8591,-4.8589,-4.8666,-4.8679,-4.8723,-4.8644,-4.8861,-4.8867,-4.8873,-4.8926,-4.8937,-4.8948,0,0,0,0,0,-4.8378,-4.8452,-4.844,-4.8455,-4.8529,-4.8591,-4.86,-4.8597,-4.8565,-4.86,-4.8611,-4.859,-4.8711,-4.8674,-4.8688,-4.8735,-4.8859,-4.8866,-4.8873,-4.8921,-4.8935,-4.8947,0,0,0,0,0,0,-4.8427,-4.8456,-4.8443,-4.8528,-4.8558,-4.8584,-4.8628,-4.8613,-4.8652,-4.8645,-4.8639,-4.8647,-4.8722,-4.8736,-4.8694,-4.8824,-4.878,-4.879,-4.8811,-4.8825,-4.8836,-4.8829,-4.8648,0,0,0,0,0,-4.8447,-4.8496,-4.8518,-4.8591,-4.8607,-4.8615,-4.8642,-4.8637,-4.8667,-4.8679,-4.8695,-4.8725,-4.8769,-4.8799,-4.8841,-4.8929,-4.8933,-4.8968,-4.8979,-4.8988,-4.8996,-4.904,-4.9054,-4.8899,-4.8899,-4.8899,0,0,-4.849,-4.8512,-4.8543,-4.8602,-4.8623,-4.8672,-4.8626,-4.868,-4.8715,-4.8687,-4.8755,-4.8769,-4.8801,-4.8881,-4.8917,-4.8895,-4.904,-4.8997,-4.9004,-4.9007,-4.9049,-4.9063,-4.9076,-4.8904,-4.8903,-4.8902,0,0,-4.8592,-4.8615,-4.8677,-4.87,-4.8733,-4.8739,-4.8754,-4.8783,-4.879,-4.8859,-4.8838,-4.8881,-4.8958,-4.8981,-4.9003,-4.9113,-4.9093,-4.9127,-4.9183,-4.9227,-4.9239,-4.9249,-4.9285,-4.9299,-4.9136,-4.9136,-4.9136,0,-4.8641,-4.8714,-4.8711,-4.8766,-4.8791,-4.8768,-4.8829,-4.8852,-4.8898,-4.8915,-4.8891,-4.8986,-4.9006,-4.9089,-4.9116,-4.9136,-4.9151,-4.9122,-4.9237,-4.9248,-4.9258,-4.9292,-4.9306,-4.914,-4.9139,-4.9139,-4.9138,0,-4.877,-4.8821,-4.8867,-4.8911,-4.8942,-4.9,-4.9005,-4.9037,-4.9029,-4.9036,-4.9106,-4.913,-4.9175,-4.9195,-4.9189,-4.9277,-4.9262,-4.9238,-4.9193,-4.9276,-4.9308,-4.9321,-4.9145,-4.9143,-4.9142,-4.9141,0,0,-4.8903,-4.8944,-4.8961,-4.8979,-4.9015,-4.9053,-4.911,-4.9154,-4.918,-4.9213,-4.9258,-4.9325,-4.9302,-4.9327,-4.9323,-4.9362,-4.9443,-4.9332,-4.9333,-4.9349,-4.9538,-4.9553,-4.9568,-4.9432,-4.9434,-4.9436,-4.9534,0,-4.9004,-4.9103,-4.9101,-4.9192,-4.9237,-4.9216,-4.9265,-4.9291,-4.93,-4.9339,-4.9349,-4.9394,-4.9363,-4.9377,-4.9415,-4.9425,-4.948,-4.9419,-4.9471,-4.9473,-4.946,-4.9585,-4.9602,-4.9693,-4.9547,-4.9549,-4.955,0,-4.9135,-4.9171,-4.9266,-4.9293,-4.9312,-4.9356,-4.9395,-4.9434,-4.9463,-4.9466,-4.9494,-4.9484,-4.9539,-4.9495,-4.9571,-4.9529,-4.9551,-4.9559,-4.9563,-4.9565,-4.9514,-4.9587,-4.9722,-4.9734,-4.9571,-4.9569,-4.9567,0,-4.9218,-4.929,-4.9356,-4.9373,-4.9407,-4.9437,-4.9453,-4.9479,-4.9505,-4.954,-4.9556,-4.9598,-4.9619,-4.9651,-4.9651,-4.962,-4.9727,-4.9683,-4.9729,-4.9729,-4.9749,-4.9747,-4.9886,-4.977,-4.977,-4.977,-4.9769,0,-4.9329,-4.9387,-4.9393,-4.9433,-4.9496,-4.9494,-4.9557,-4.957,-4.9593,-4.9634,-4.962,-4.9659,-4.9659,-4.9698,-4.9699,-4.976,-4.9771,-4.9773,-4.9772,-4.9773,-4.9772,-4.9784,-4.9776,-4.9773,-4.9772,-4.9772,-4.9771,0,-4.943,-4.9437,-4.9506,-4.9532,-4.954,-4.9586,-4.9608,-4.9645,-4.9653,-4.9704,-4.9717,-4.9728,-4.9773,-4.9778,-4.9831,-4.9832,-4.9903,-4.9898,-4.9893,-4.9891,-4.9935,-4.9929,-5.0083,-5.0102,-4.9977,-4.9978,-4.9979,0,-4.9499,-4.9543,-4.9573,-4.96,-4.9617,-4.966,-4.9686,-4.9686,-4.9713,-4.9749,-4.9781,-4.9825,-4.986,-4.9933,-4.9945,-4.9985,-4.9978,-5.0029,-4.9983,-4.9982,-4.9974,-4.997,-4.9973,-5.0037,-5.0038,-5.0039,-5.004,0,-4.9619,-4.962,-4.9658,-4.9697,-4.9729,-4.976,-4.9789,-4.9811,-4.9814,-4.9846,-4.9892,-4.9919,-4.9972,-5.0015,-5.0054,-5.0069,-5.0054,-5.0055,-5.0067,-5.0066,-5.006,-5.006,-4.9913,-5.005,-5.0049,-5.0049,-5.0048,-5.0048,-4.9704,-4.974,-4.9767,-4.9809,-4.9831,-4.9858,-4.9894,-4.9905,-4.9944,-4.9987,-4.9985,-5.0034,-5.0061,-5.0112,-5.013,-5.0168,-5.015,-5.0169,-5.0173,-5.0176,-5.0179,-5.0057,-5.0176,-5.0175,-5.0175,-5.0175,-5.0175,0,-4.9819,-4.9835,-4.9875,-4.9915,-4.9948,-4.9933,-4.9964,-4.9992,-5.0036,-5.0062,-5.0096,-5.0148,-5.0189,-5.0205,-5.0245,-5.0272,-5.0266,-5.0282,-5.0278,-5.0281,-5.0194,-5.0178,-5.0286,-5.0286,-5.0286,-5.0286,-5.0286,-5.0286,-4.9883,-4.9944,-4.9948,-5.0018,-5.0034,-5.0082,-5.01,-5.0125,-5.0145,-5.0203,-5.0237,-5.0248,-5.0269,-5.031,-5.0347,-5.035,-5.0364,-5.0382,-5.0382,-5.0299,-5.0288,-5.0277,-5.0262,-5.0386,-5.0386,-5.0466,-5.0467,-5.0467]},{"header":{"parameterUnit":"m.s-1","parameterCategory":1,"la1":30.2991,"la2":30.254,"lo1":-89.0895,"lo2":-89.0444,"dy":0.0017,"dx":0.0017,"nx":28,"ny":28,"refTime":"2025-07-16T09:00:00:Z","depth":0,"parameterNumber":3,"parameterNumberName":"V-component_of_WINDS"},"data":[0,0,0,0,0,0,0,0,0,0,0,0,0,0,0,0,0,0,0,0,0,0,0,0,0,0,0,0,0,0,0,0,0,0,0,0,0,0,0,0,0,0,0,0,0,0,0,0,0,0,0,0,0,0,0,0,0,0,4.2293,4.2295,0,4.2445,4.2446,4.2448,4.2409,4.2406,4.2403,4.24,4.2553,4.2559,4.2566,0,0,0,0,0,0,0,0,0,0,0,0,0,4.1968,4.1974,4.2293,4.2295,4.2297,4.2444,4.2446,4.2449,4.2409,4.2406,4.2402,4.2399,4.255,4.2559,4.2567,0,0,0,0,0,0,0,0,0,0,0,0,0,4.2113,4.1976,4.2293,4.2295,4.2297,4.2444,4.2447,4.2449,4.241,4.2406,4.2401,4.2397,4.2548,4.2558,4.2568,4.2721,0,0,4.2599,4.2604,0,0,0,0,0,0,0,0,4.2105,4.2125,4.2293,4.2295,4.2298,4.2403,4.2388,4.254,4.2411,4.2367,4.24,4.2395,4.2506,4.252,4.2558,4.2728,4.2735,4.26,4.2606,4.2611,4.2614,0,0,0,0,0,0,0,4.2095,4.2118,4.2353,4.2295,4.2298,4.2288,4.2304,4.2416,4.246,4.2371,4.2368,4.2387,4.2507,4.2548,4.2561,4.2737,4.26,4.2609,4.2615,4.2619,4.3039,4.3044,0,0,0,0,0,0,4.2083,4.211,4.2348,4.2358,4.2188,4.2297,4.2315,4.2374,4.2459,4.2467,4.239,4.2384,4.2533,4.2549,4.2566,4.275,4.2611,4.262,4.2626,4.3034,4.304,4.3046,0,0,0,0,0,0,4.2076,4.2105,4.2342,4.2233,4.2263,4.2308,4.2374,4.2379,4.2421,4.2474,4.2481,4.2425,4.253,4.2552,4.2683,4.2755,4.2625,4.2634,4.3028,4.3036,4.3043,4.312,0,0,0,0,0,0,4.2067,4.2103,4.2162,4.2235,4.2269,4.2457,4.2379,4.2385,4.2439,4.2432,4.2508,4.2516,4.2528,4.2668,4.2693,4.2767,4.2642,4.3022,4.3032,4.3041,4.3111,4.3129,4.3145,0,0,0,0,0,4.2056,4.2177,4.2165,4.2194,4.2344,4.2461,4.248,4.2492,4.2445,4.2504,4.2538,4.2514,4.2744,4.2681,4.271,4.2788,4.3017,4.3029,4.304,4.3104,4.3126,4.3144,0,0,0,0,0,0,4.211,4.2187,4.2174,4.2323,4.2386,4.2454,4.2529,4.2515,4.2592,4.2583,4.2594,4.2612,4.2745,4.278,4.2709,4.294,4.2873,4.2891,4.2912,4.2934,4.295,4.2938,4.2651,0,0,0,0,0,4.214,4.223,4.2291,4.2416,4.2449,4.2484,4.2535,4.254,4.2605,4.2631,4.2675,4.2738,4.2825,4.2881,4.2964,4.3117,4.3132,4.3184,4.3201,4.3214,4.3229,4.3311,4.3335,4.3083,4.3083,4.3082,0,0,4.2201,4.2254,4.231,4.2429,4.2478,4.257,4.2506,4.2606,4.2674,4.2646,4.2772,4.2806,4.2878,4.302,4.3085,4.3053,4.3302,4.3229,4.3239,4.3246,4.3325,4.3349,4.337,4.309,4.3089,4.3088,0,0,4.236,4.241,4.2519,4.257,4.2646,4.2668,4.2695,4.2766,4.2787,4.2915,4.2895,4.2976,4.3125,4.3176,4.3222,4.3401,4.3381,4.3428,4.3514,4.3595,4.3615,4.3632,4.3695,4.3718,4.3442,4.3443,4.3443,0,4.2426,4.2564,4.2577,4.2679,4.2731,4.2711,4.2821,4.2869,4.2968,4.3004,4.2968,4.3154,4.3201,4.3355,4.3398,4.3437,4.3466,4.3418,4.3611,4.3629,4.3645,4.3705,4.3729,4.3448,4.3447,4.3446,4.3446,0,4.2642,4.2738,4.2817,4.2914,4.2975,4.3081,4.3108,4.3169,4.3168,4.3194,4.3323,4.3379,4.3472,4.3509,4.3509,4.3663,4.3641,4.3608,4.3541,4.3674,4.3731,4.3754,4.3455,4.3453,4.3452,4.345,0,0,4.2838,4.294,4.2969,4.3012,4.3095,4.3169,4.3273,4.3365,4.3416,4.3485,4.3572,4.3699,4.3669,4.3721,4.3727,4.3798,4.3935,4.3756,4.3757,4.3786,4.4107,4.413,4.4157,4.3923,4.3927,4.3931,4.41,0,4.3002,4.3187,4.3201,4.3367,4.3455,4.3438,4.3529,4.3589,4.3616,4.3695,4.3725,4.3814,4.3768,4.38,4.3869,4.3903,4.3999,4.3891,4.4003,4.4006,4.3984,4.4186,4.4212,4.4369,4.4123,4.4126,4.4129,0,4.3219,4.3295,4.347,4.354,4.3577,4.3659,4.3744,4.382,4.3887,4.3902,4.3961,4.3957,4.4063,4.3994,4.4141,4.4067,4.4114,4.4138,4.4144,4.4153,4.4075,4.42,4.442,4.4443,4.4164,4.4161,4.4159,0,4.3343,4.3489,4.3612,4.365,4.3735,4.3792,4.383,4.3893,4.3948,4.4022,4.4058,4.4144,4.419,4.4257,4.4276,4.4224,4.4421,4.4354,4.4436,4.4436,4.4477,4.4474,4.4706,4.451,4.4509,4.4509,4.4508,0,4.3524,4.3631,4.3669,4.3745,4.3864,4.3879,4.3997,4.4032,4.4088,4.417,4.416,4.4237,4.4258,4.4338,4.4354,4.4472,4.4494,4.4508,4.4511,4.4508,4.4506,4.4538,4.4527,4.4515,4.4514,4.4512,4.4511,0,4.3682,4.3711,4.3844,4.3914,4.3934,4.4019,4.4078,4.4151,4.4177,4.4281,4.4306,4.4347,4.4442,4.4468,4.458,4.4591,4.473,4.4723,4.4707,4.4707,4.4787,4.4779,4.5046,4.5081,4.4863,4.4865,4.4867,0,4.3795,4.3877,4.3956,4.401,4.4051,4.4138,4.4194,4.4212,4.427,4.4354,4.4416,4.4509,4.4584,4.4736,4.4775,4.4862,4.4856,4.4944,4.4869,4.4864,4.4856,4.485,4.4858,4.4957,4.496,4.4962,4.4963,0,4.3992,4.4003,4.4084,4.417,4.4237,4.4306,4.4372,4.4417,4.4444,4.451,4.4606,4.4665,4.4781,4.4873,4.496,4.4998,4.4985,4.4987,4.501,4.5008,4.4995,4.5002,4.4744,4.498,4.4978,4.4977,4.4976,4.4975,4.413,4.4202,4.4269,4.4359,4.4411,4.4473,4.4545,4.458,4.4661,4.4757,4.4763,4.4868,4.4933,4.5049,4.5092,4.5174,4.5147,4.5182,4.519,4.5198,4.5204,4.4983,4.519,4.5189,4.5189,4.5189,4.5188,0,4.4326,4.4368,4.4451,4.4544,4.4615,4.4598,4.467,4.473,4.4823,4.4885,4.496,4.507,4.516,4.5207,4.5296,4.5353,4.5349,4.5375,4.5371,4.5379,4.5223,4.5193,4.5377,4.5377,4.5377,4.5377,4.5377,4.5376,4.4436,4.4557,4.4576,4.4722,4.4763,4.4866,4.4908,4.4965,4.5015,4.5139,4.5214,4.5244,4.5301,4.5394,4.5475,4.5487,4.5519,4.5549,4.5557,4.541,4.539,4.5372,4.5344,4.5556,4.5556,4.5707,4.5708,4.5709]}]]